TimeCDT,TemperatureF,Dew PointF,Humidity,Sea Level PressureIn,VisibilityMPH,Wind Direction,Wind SpeedMPH,Gust SpeedMPH,PrecipitationIn,Events,Conditions,WindDirDegrees,DateUTC
12:15 AM,26.6,19.4,74,30.36,10.0,Calm,Calm,-,N/A,,Clear,0,2013-03-14 05:15:00
12:35 AM,26.6,19.4,74,30.37,10.0,Calm,Calm,-,N/A,,Clear,0,2013-03-14 05:35:00
1:15 AM,26.6,19.4,74,30.36,10.0,NNW,3.5,-,N/A,,Clear,330,2013-03-14 06:15:00
1:55 AM,24.8,19.4,80,30.37,10.0,Calm,Calm,-,N/A,,Clear,0,2013-03-14 06:55:00
2:15 AM,23.0,19.4,86,30.36,10.0,Calm,Calm,-,N/A,,Clear,0,2013-03-14 07:15:00
2:35 AM,23.0,19.4,86,30.37,10.0,Calm,Calm,-,N/A,,Clear,0,2013-03-14 07:35:00
2:55 AM,21.2,17.6,86,30.37,10.0,Calm,Calm,-,N/A,,Clear,0,2013-03-14 07:55:00
3:15 AM,21.2,19.4,93,30.36,10.0,Calm,Calm,-,N/A,,Clear,0,2013-03-14 08:15:00
3:35 AM,21.2,19.4,93,30.36,10.0,Calm,Calm,-,N/A,,Clear,0,2013-03-14 08:35:00
3:55 AM,19.4,17.6,93,30.36,10.0,Calm,Calm,-,N/A,,Clear,0,2013-03-14 08:55:00
4:15 AM,19.4,17.6,93,30.36,10.0,Calm,Calm,-,N/A,,Clear,0,2013-03-14 09:15:00
4:35 AM,19.4,19.4,100,30.36,10.0,Calm,Calm,-,N/A,,Clear,0,2013-03-14 09:35:00
4:55 AM,19.4,19.4,100,30.37,10.0,Calm,Calm,-,N/A,,Clear,0,2013-03-14 09:55:00
5:15 AM,19.4,19.4,100,30.37,10.0,Calm,Calm,-,N/A,,Clear,0,2013-03-14 10:15:00
5:35 AM,19.4,17.6,93,30.37,10.0,Calm,Calm,-,N/A,,Clear,0,2013-03-14 10:35:00
5:55 AM,17.6,17.6,100,30.38,10.0,Calm,Calm,-,N/A,,Clear,0,2013-03-14 10:55:00
6:15 AM,19.4,17.6,93,30.39,10.0,Calm,Calm,-,N/A,,Clear,0,2013-03-14 11:15:00
6:35 AM,17.6,15.8,93,30.38,10.0,Calm,Calm,-,N/A,,Clear,0,2013-03-14 11:35:00
6:55 AM,17.6,15.8,93,30.38,10.0,Calm,Calm,-,N/A,,Clear,0,2013-03-14 11:55:00
7:15 AM,17.6,15.8,93,30.39,10.0,Calm,Calm,-,N/A,,Clear,0,2013-03-14 12:15:00
7:35 AM,21.2,19.4,93,30.39,10.0,Calm,Calm,-,N/A,,Clear,0,2013-03-14 12:35:00
7:55 AM,23.0,19.4,86,30.40,10.0,Calm,Calm,-,N/A,,Clear,0,2013-03-14 12:55:00
8:15 AM,24.8,19.4,80,30.39,10.0,Calm,Calm,-,N/A,,Clear,0,2013-03-14 13:15:00
8:35 AM,26.6,19.4,74,30.40,10.0,Calm,Calm,-,N/A,,Clear,0,2013-03-14 13:35:00
8:55 AM,26.6,19.4,74,30.40,10.0,Calm,Calm,-,N/A,,Clear,0,2013-03-14 13:55:00
9:15 AM,28.4,19.4,69,30.40,10.0,Calm,Calm,-,N/A,,Clear,0,2013-03-14 14:15:00
9:35 AM,30.2,19.4,64,30.40,10.0,Calm,Calm,-,N/A,,Clear,0,2013-03-14 14:35:00
9:55 AM,30.2,19.4,64,30.40,10.0,East,3.5,-,N/A,,Clear,80,2013-03-14 14:55:00
10:15 AM,32.0,19.4,60,30.40,10.0,ENE,5.8,-,N/A,,Clear,60,2013-03-14 15:15:00
10:35 AM,32.0,19.4,60,30.40,10.0,Calm,Calm,-,N/A,,Clear,0,2013-03-14 15:35:00
10:55 AM,33.8,19.4,56,30.39,10.0,Calm,Calm,-,N/A,,Clear,0,2013-03-14 15:55:00
11:15 AM,35.6,19.4,52,30.38,10.0,SSW,4.6,-,N/A,,Clear,200,2013-03-14 16:15:00
11:35 AM,35.6,19.4,52,30.38,10.0,SSW,3.5,-,N/A,,Clear,200,2013-03-14 16:35:00
11:55 AM,35.6,19.4,52,30.37,10.0,South,4.6,-,N/A,,Clear,190,2013-03-14 16:55:00
12:15 PM,39.2,19.4,45,30.36,10.0,South,4.6,-,N/A,,Clear,190,2013-03-14 17:15:00
12:35 PM,39.2,17.6,42,30.36,10.0,Calm,Calm,-,N/A,,Clear,0,2013-03-14 17:35:00
12:55 PM,39.2,17.6,42,30.35,10.0,Calm,Calm,-,N/A,,Clear,0,2013-03-14 17:55:00
1:15 PM,39.2,19.4,45,30.34,10.0,NNE,3.5,-,N/A,,Clear,30,2013-03-14 18:15:00
1:35 PM,39.2,19.4,45,30.34,10.0,SSW,4.6,-,N/A,,Clear,210,2013-03-14 18:35:00
1:55 PM,42.8,17.6,36,30.32,10.0,Variable,3.5,-,N/A,,Clear,0,2013-03-14 18:55:00
2:15 PM,44.6,19.4,37,30.32,10.0,Calm,Calm,-,N/A,,Clear,0,2013-03-14 19:15:00
2:55 PM,46.4,19.4,34,30.30,10.0,Variable,6.9,-,N/A,,Partly Cloudy,0,2013-03-14 19:55:00
3:15 PM,44.6,19.4,37,30.29,10.0,Calm,Calm,-,N/A,,Partly Cloudy,0,2013-03-14 20:15:00
3:35 PM,46.4,19.4,34,30.29,10.0,Variable,4.6,-,N/A,,Partly Cloudy,0,2013-03-14 20:35:00
3:55 PM,44.6,17.6,34,30.29,10.0,Variable,5.8,-,N/A,,Clear,0,2013-03-14 20:55:00
4:15 PM,44.6,17.6,34,30.29,10.0,Variable,3.5,-,N/A,,Clear,0,2013-03-14 21:15:00
4:35 PM,44.6,17.6,34,30.28,10.0,West,8.1,-,N/A,,Clear,260,2013-03-14 21:35:00
4:55 PM,44.6,19.4,37,30.28,10.0,WNW,5.8,-,N/A,,Mostly Cloudy,300,2013-03-14 21:55:00
5:15 PM,44.6,21.2,39,30.27,10.0,West,8.1,-,N/A,,Mostly Cloudy,270,2013-03-14 22:15:00
5:35 PM,42.8,21.2,42,30.27,10.0,WSW,8.1,-,N/A,,Partly Cloudy,250,2013-03-14 22:35:00
5:55 PM,42.8,24.8,49,30.27,10.0,Variable,4.6,-,N/A,,Partly Cloudy,0,2013-03-14 22:55:00
6:15 PM,41.0,26.6,57,30.27,10.0,West,4.6,-,N/A,,Partly Cloudy,280,2013-03-14 23:15:00
6:35 PM,39.2,28.4,65,30.27,10.0,NW,5.8,-,N/A,,Partly Cloudy,320,2013-03-14 23:35:00
6:55 PM,39.2,28.4,65,30.28,10.0,West,3.5,-,N/A,,Mostly Cloudy,280,2013-03-14 23:55:00
7:15 PM,37.4,30.2,75,30.28,10.0,West,3.5,-,N/A,,Overcast,260,2013-03-15 00:15:00
7:35 PM,37.4,30.2,75,30.28,10.0,Calm,Calm,-,N/A,,Scattered Clouds,0,2013-03-15 00:35:00
7:55 PM,35.6,32.0,87,30.27,10.0,North,3.5,-,N/A,,Scattered Clouds,360,2013-03-15 00:55:00
8:15 PM,35.6,33.8,93,30.27,10.0,SSE,4.6,-,N/A,,Partly Cloudy,160,2013-03-15 01:15:00
8:35 PM,37.4,33.8,87,30.27,10.0,Calm,Calm,-,N/A,,Unknown,0,2013-03-15 01:35:00
8:55 PM,37.4,33.8,87,30.27,10.0,SE,3.5,-,N/A,,Mostly Cloudy,140,2013-03-15 01:55:00
9:15 PM,37.4,33.8,87,30.26,10.0,SSE,3.5,-,N/A,,Scattered Clouds,150,2013-03-15 02:15:00
9:35 PM,37.4,33.8,87,30.26,10.0,SSE,3.5,-,N/A,,Partly Cloudy,150,2013-03-15 02:35:00
9:55 PM,37.4,33.8,87,30.26,10.0,South,4.6,-,N/A,,Unknown,170,2013-03-15 02:55:00
10:15 PM,35.6,32.0,87,30.26,10.0,South,5.8,-,N/A,,Scattered Clouds,170,2013-03-15 03:15:00
10:35 PM,35.6,32.0,87,30.25,10.0,South,3.5,-,N/A,,Scattered Clouds,170,2013-03-15 03:35:00
10:55 PM,35.6,33.8,93,30.25,10.0,South,4.6,-,N/A,,Partly Cloudy,190,2013-03-15 03:55:00
11:15 PM,35.6,33.8,93,30.24,10.0,SSW,4.6,-,N/A,,Partly Cloudy,200,2013-03-15 04:15:00
11:35 PM,35.6,32.0,87,30.24,10.0,South,5.8,-,N/A,,Partly Cloudy,180,2013-03-15 04:35:00
11:55 PM,35.6,32.0,87,30.23,10.0,SSE,4.6,-,N/A,,Clear,160,2013-03-15 04:55:00